Regional Weather Roundup
Issued by NWS Upton, NY

Current Version | Previous Version | Text Only | Print | Product List | Glossary Off
Versions: 1 2 3 4 5 6 7 8 9 10 11 12 13 14 15 16 17 18 19 20 21 22 23 24 25 26 27 28 29 30 31 32 33 34 35 36 37 38 39 40 41 42 43 44 45 46 47 48 49 50
000 ASUS41 KOKX 090704 RWROKX REGIONAL WEATHER ROUNDUP NATIONAL WEATHER SERVICE NEW YORK NY 200 AM EST TUE FEB 09 2016 NOTE: "FAIR" INDICATES FEW OR NO CLOUDS BELOW 12,000 FEET WITH NO SIGNIFICANT WEATHER AND/OR OBSTRUCTIONS TO VISIBILITY. NYZ071-072-176-178-NJZ106-104-090800- NEW YORK CITY METRO AREA CITY SKY/WX TMP DP RH WIND PRES REMARKS CENTRAL PARK CLOUDY 28 21 75 NE8 29.75S WCI 20 LAGUARDIA APRT CLOUDY 28 22 78 E9 29.74S WCI 19 KENNEDY INTL FLURRIES 28 22 78 NE9 29.75F WCI 19 NEWARK/LIBERTY LGT SNOW 29 24 82 E6 29.74S WCI 23 BRNX BOT. GARD N/A 28 21 74 N7 29.74S WCI 21 TETERBORO LGT SNOW 28 20 71 NE5 29.73F WCI 23 $$ NYZ177-179-078>081-090800- LONG ISLAND NEW YORK CITY SKY/WX TMP DP RH WIND PRES REMARKS FARMINGDALE CLOUDY 27 22 81 NE6 29.74F WCI 20 ISLIP CLOUDY 26 21 81 E5 29.72F WCI 20 SHIRLEY CLOUDY 26 21 81 VRB5 29.75F WCI 20 RIVERHEAD N/A 27 19 74 E5 29.72F WCI 21 WESTHAMPTON MIX PCPN 24 19 81 NE6 29.75F WCI 17 EAST HAMPTON CLOUDY 24 19 82 CALM 29.76S MONTAUK POINT N/A 25 19 78 NE7 29.76F WCI 17 $$ NYZ052-065-067-090800- HUDSON VALLEY CITY SKY/WX TMP DP RH WIND PRES REMARKS WHITE PLAINS CLOUDY 24 18 77 E3 29.72S NEWBURGH CLOUDY 23 21 93 E9 29.72F WCI 13 MONTGOMERY CLOUDY 25 22 88 N3 29.71F POUGHKEEPSIE LGT SNOW 26 21 81 E3 29.73F ALBANY LGT SNOW 25 21 85 CALM 29.74F FOG $$ NJZ001-105-106-008-010-013-015-019>022-104-090800- NEW JERSEY CITY SKY/WX TMP DP RH WIND PRES REMARKS NEWARK/LIBERTY LGT SNOW 29 24 82 E6 29.74S WCI 23 TETERBORO LGT SNOW 28 20 71 NE5 29.73F WCI 23 CALDWELL LGT SNOW 27 22 81 E8 29.73F WCI 19 MORRISTOWN LGT SNOW 28 23 80 E3 29.73S SOMERVILLE LGT SNOW 29 26 89 CALM 29.70F FOG SUSSEX LGT SNOW 26 22 84 NE6 29.69F FOG WCI 19 ANDOVER N/A 27 23 85 CALM 29.69F TRENTON CLOUDY 29 26 89 E8 29.69F WCI 21 MILLVILLE CLOUDY 33 31 92 E7 29.67F WCI 27 ATLANTIC CITY MOCLDY 33 31 92 NE3 29.67S WRIGHTSTOWN CLOUDY 30 30 100 NE9 29.66F WCI 21 TOMS RIVER CLOUDY 30 28 93 NE7 29.70F WCI 23 BELMAR CLOUDY 30 21 69 NE5 29.70F WCI 25 $$ PAZ047>061-062-071-090800- EASTERN PENNSYLVANIA CITY SKY/WX TMP DP RH WIND PRES REMARKS PHILADELPHIA LGT SNOW 32 27 81 E8 29.69F FOG WCI 25 ALLENTOWN CLOUDY 30 25 80 E9 29.67F WCI 22 SCRANTON LGT SNOW 28 22 78 CALM 29.62F $$ CTZ002-004>006-009-010-012-RIZ004-006-007-MAZ004-011-015-090800- SOUTHERN NEW ENGLAND IN CT CITY SKY/WX TMP DP RH WIND PRES REMARKS BRADLEY INTL CLOUDY 22 15 75 NE9 29.76S WCI 12 HARTFORD CLOUDY 24 17 74 N8 29.77F WCI 15 DANBURY LGT SNOW 23 16 74 E7 29.73F WCI 15 WTRBRY/OXFORD CLOUDY 21 10 63 NE6 29.71F WCI 14 BRIDGEPORT CLOUDY 25 19 78 NE8 29.76S WCI 16 MERIDEN LGT SNOW 24 17 74 VRB5 29.76F WCI 18 NEW HAVEN LGT SNOW 24 19 81 NE6 29.75F WCI 17 CHESTER LGT SNOW 23 18 80 NE7 29.73F WCI 15 GROTON CLOUDY 22 18 85 N8 29.75F WCI 12 WILLIMANTIC CLOUDY 22 14 71 N6 29.76F WCI 14 IN RI CITY SKY/WX TMP DP RH WIND PRES REMARKS PROVIDENCE FLURRIES 21 15 78 N9 29.77R WCI 11 BLOCK ISLAND CLOUDY 25 19 80 N9G18 29.72F WCI 15 WESTERLY CLOUDY 23 16 74 N6 29.75F WCI 16 IN MA CITY SKY/WX TMP DP RH WIND PRES REMARKS BOSTON FLURRIES 20 16 84 NW9 29.77S WCI 9 WORCESTER CLOUDY 17 13 84 NE8 29.70S VSB 1 WCI 7 WESTFIELD CLOUDY 22 18 85 N5 29.75F WCI 16 PROVINCETOWN MIX PCPN 29 26 89 N17G23 29.73R WCI 17 NANTUCKET CLOUDY 32 26 78 N14 29.70R WCI 22 $$ ANZ330-335-338-340-345-350-353-355-090800- COASTAL MARINE OBSERVATIONS STATION/POSITION TIME SKY/WX TEMP WIND PRES VSBY WAVE AIR SEA DIR/SP/G HT/PER (UTC) (F) (DEG/KT/KT) (MB) (MI) (FT/S) NY HARB ENTRANCE 0550 30 43 70/ 12/ 16 1006.6 8/13 4S FIRE IS NOT AVBL 20S FIRE ISLAND 0550 31 45 60/ 12/ 16 1006.7 9/13 GREAT SOUTH BAY NOT AVBL 23SW MTP 0650 29 46 40/ 14/ 17 1006.5 10/13 HUDSON CANYON 0550 36 49 1005.9 14/12 KINGS POINT 0600 26 38 80/ 5/ 7 1006.8 EXECUTION ROCKS NOT AVBL CENTRAL LI SOUND 0600 27 30/ 10/ 14 N/A 1/ 2 EASTERN LI SOUND 0600 26 42 10/ 10/ 16 N/A ROBBINS REEF 0600 28 70/ 11/ 13 1006.2 $$ >>>>>>>>>>>>>>>>>>>>>>>>>>>> KEY <<<<<<<<<<<<<<<<<<<<<<<<<<< > < > SKY/WX - SKY CONDITION/PRESENT WEATHER < > TMP - TEMPERATURE IN FAHRENHEIT < > DP - DEWPOINT IN FAHRENHEIT < > RH - RELATIVE HUMIDITY IN PERCENT < > WIND - DIRECTION AND SPEED IN MPH < > PRES - MEAN SEA LEVEL PRESSURE IN INCHES OF HG < > WCI - WIND CHILL INDEX < > VSB - VISIBILITY IN MILES < > HX - HEAT INDEX < > TC - TEMPERATURE IN CELSIUS < > VRB - VARIABLE WIND DIRECTION < > < >>>>>>>>>>>>>>>>>>>>>>>>>>>> KEY <<<<<<<<<<<<<<<<<<<<<<<<<<<

USA.gov is the U.S. government's official web portal to all federal, state and local government web resources and services.